www.pogodaiklimat.ru
ПОГОДА в Авалоне
Время
и дата
08:51 19.07
09:51 19.07
10:51 19.07
11:51 19.07
12:51 19.07
13:51 19.07
14:51 19.07
15:51 19.07
16:51 19.07
17:51 19.07
18:51 19.07
19:51 19.07
20:51 19.07
21:51 19.07
22:51 19.07
23:51 19.07
00:51 20.07
01:51 20.07
02:51 20.07
03:51 20.07
04:51 20.07
05:51 20.07
06:51 20.07
07:51 20.07
08:51 20.07
09:51 20.07
10:51 20.07
11:51 20.07
12:51 20.07
13:51 20.07
14:51 20.07
15:51 20.07
16:51 20.07
17:51 20.07
18:51 20.07
19:51 20.07
20:51 20.07
21:51 20.07
22:51 20.07
23:51 20.07
00:51 21.07
01:51 21.07
02:51 21.07
03:51 21.07
04:51 21.07
05:51 21.07
06:51 21.07
07:51 21.07
Ветер
(напр.,м/с)
Видим. Явления Облачность Т
(С)
Тd
(С)
f
(%)
Тe
(С)
Тes
(С)
Комфортность P
(гПа)
Po
(гПа)
Тmin
(С)
Tmax
(С)
R
(мм)
R24
(мм)
S
(см)
СЗ 2 16 км ясно +26.1 +13.9 47 +28 +36 жарко 1014.4 959.6
З 2 16 км ясно +29.4 +13.3 37 +31 +44 жарко 1014.3 960.0 +20.0 +29.4
З 3 16 км ясно +31.1 +3.3 17 +29 +43 жарко 1014.1 960.0
З 2 16 км ясно +29.4 +10.0 30 +29 +50 жарко 1014.3 960.0
З 3 16 км ясно +31.1 +2.8 17 +29 +46 жарко 1013.8 959.6
З 3 16 км ясно +31.7 +5.6 19 +30 +46 жарко 1013.6 959.3
штиль 0 16 км ясно +31.7 +13.3 33 +33 +55 опасность
солнечного
удара
1012.8 958.7
СЗ 2 16 км ясно +31.7 +7.2 22 +30 +42 жарко 1012.3 958.4 +28.9 +32.8
СЗ 3 16 км ясно +31.1 +7.8 23 +30 +36 жарко 1012.0 958.0
З 4 16 км ясно +29.4 +6.7 24 +28 +30 жарко 1012.0 958.0
З 5 16 км ясно +28.3 +6.7 25 +27 +28 жарко 1012.1 958.0
З 4 16 км ясно +27.8 +7.2 27 +27 +27 жарко 1012.4 958.4
СЗ 3 16 км ясно +26.7 +6.7 28 +26 +26 жарко 1012.9 958.7
СЗ 3 16 км ясно +26.7 +6.1 27 +26 +26 жарко 1012.4 958.7 +26.1 +32.2
З 3 16 км ясно +26.1 +6.1 28 +26 +26 жарко 1012.3 958.7
СЗ 3 16 км ясно +26.1 +6.7 29 +26 +26 жарко 1012.2 958.4
СЗ 2 16 км ясно +26.7 +7.2 29 +26 +26 жарко 1011.5 957.7
СЗ 3 16 км ясно +26.7 +7.2 29 +26 +26 жарко 1011.2 957.7
СЗ 3 16 км ясно +25.0 +6.7 31 +25 +25 комфорт 1011.2 957.4
З 2 16 км ясно +26.1 +6.7 29 +26 +26 жарко 1011.1 957.4 +25.0 +27.2
штиль 0 16 км ясно +26.1 +6.7 29 +26 +26 жарко 1011.3 957.7
З 2 16 км ясно +27.2 +6.7 27 +27 +27 жарко 1011.9 958.0
штиль 0 16 км ясно +29.4 +6.1 23 +28 +30 жарко 1012.4 958.7
штиль 0 16 км ясно +29.4 +9.4 29 +29 +34 жарко 1012.6 959.0
штиль 0 16 км ясно +31.1 +3.3 17 +29 +40 жарко 1012.7 959.0
нст 2 16 км ясно +31.7 +8.3 23 +31 +43 жарко 1012.7 959.0 +25.6 +32.2
З 2 16 км ясно +32.2 +5.0 18 +30 +47 жарко 1012.6 959.0
СЗ 2 16 км ясно +32.8 +6.1 19 +31 +51 опасность
солнечного
удара
1012.5 959.0
СЗ 3 16 км ясно +32.2 +9.4 24 +31 +49 жарко 1012.0 958.4
нст 2 16 км ясно +31.7 +6.1 20 +30 +50 жарко 1011.6 958.0
З 3 16 км ясно +32.2 +2.8 16 +30 +43 жарко 1011.1 957.4
З 3 16 км ясно +31.7 +1.7 15 +29 +39 жарко 1010.8 957.1 +30.6 +33.3
З 3 16 км ясно +30.0 +0.6 15 +27 +33 жарко 1010.4 956.8
З 4 16 км ясно +27.8 +2.8 20 +26 +28 жарко 1010.3 956.4
З 4 16 км ясно +27.2 0.0 17 +25 +25 комфорт 1010.3 956.8
З 4 16 км ясно +26.1 -1.1 17 +24 +24 комфорт 1010.7 956.8
СЗ 2 16 км ясно +27.2 -1.7 15 +25 +25 комфорт 1010.5 957.1
СВ 2 16 км ясно +24.4 +5.0 29 +24 +24 комфорт 1010.8 957.1 +24.4 +31.7
штиль 0 16 км ясно +23.9 +7.2 34 +24 +24 комфорт 1010.9 957.1
штиль 0 16 км ясно +24.4 +5.6 30 +24 +24 комфорт 1010.4 956.8
штиль 0 16 км ясно +21.7 +8.3 42 +23 +23 комфорт 1010.2 956.4
СВ 3 16 км ясно +21.1 +8.9 46 +22 +22 комфорт 1010.0 956.1
штиль 0 16 км ясно +24.4 +5.6 30 +24 +24 комфорт 1009.5 955.8
штиль 0 16 км ясно +25.0 +3.9 25 +24 +24 комфорт 1009.4 955.8 +20.0 +26.1
штиль 0 16 км ясно +24.4 +1.1 22 +23 +23 комфорт 1009.6 955.8
СВ 2 16 км ясно +22.8 +8.3 39 +24 +24 комфорт 1010.5 956.4
СВ 2 16 км ясно +26.1 +8.3 32 +26 +27 жарко 1010.8 956.8
ЮВ 2 16 км ясно +25.6 +11.7 42 +27 +31 жарко 1011.2 957.1
Местоположение метеостанции Catalina Airport: широта 33.4050 долгота -118.4158 высота над уровнем моря 488 м.
В архиве по умолчанию представлена погода в Авалоне за последние 1-2 суток. Обновление информации о фактической погоде в базе происходит ежечасно! Архивные данные за месяц целиком и за предыдущие месяцы Вы можете получить, выбрав интересующий диапазон дат из раскрывающегося списка и нажав кнопку "Ввод!".
Внимание! Архив погоды МЕТАР в базе сайта по станциям, не включенным в климатический монитор, хранится не более 60 дней. Нет смысла пытаться выбрать более раннюю дату.
*Определитесь, кто Вы:
Внимание! Время в таблицах - местное (без учета летнего времени). Для получения всемирного времени необходимо вычесть поправку, которая равна -8 ч.
Смотрите также архив погоды в соседних городах и на ближайших метеорологических станциях:
Партнеры нашего сайта:      
Пояснения к столбцам:
  • Ветер - указаны скорость ветра в м/с - средняя за 10 мин, порывы в срок и между сроками (в фигурных скобках) и направление, откуда дует ветер: С - северный,
  • СВ - северо-восточный, В - восточный, ЮВ - юго-восточный, Ю - южный, ЮЗ - юго-западный, З - западный, СЗ - северо-западный.
  • Видимость - горизонтальная дальность видимости в метрах или километрах. При видимости от 1 до 10 км при отсутствии осадков обычно наблюдается дымка, при ухудшении видимости до 1 км и менее - туман. В сухую погоду видимость может ухудшаться дымом, пылью или мглою.
  • Явления - указаны атмосферные явления, наблюдавшиеся в срок или в последний час перед сроком; фигурными скобками обозначены явления, наблюдавшиеся между сроками (за 1-3 часа до срока); квадратными скобками обозначены град или гололедные отложения с указанием их диаметра в мм.
  • Облачность - указаны через наклонную черту общая и нижняя облачность в баллах и высота нижней границы облаков в метрах; квадратными скобками обозначены формы облаков: Ci - перистые, Cs - перисто-слоистые, Cc - перисто-кучевые, Ac - высококучевые, As - высокослоистые, Sc - слоисто-кучевые, Ns - слоисто-дождевые, Cu - кучевые, Cb - кучево-дождевые. Подробнее классификацию облаков см. в Атласе облаков (PDF).
  • T - Температура воздуха - температура, измеренная на высоте 2 м над землей.
  • Td - Температура точки росы - температура, при понижении до которой содержащийся в воздухе водяной пар достигнет насыщения.
  • f - Относительная влажность воздуха - влажноcть воздуха, измеренная на высоте 2 м над землей.
  • Te - Эффективная температура - температура, которую ощущает одетый по сезону человек в тени. Характеристика душности погоды. При расчете учитывается влияние влажности воздуха и скорости ветра на теплоощущения человека.
  • Tes - Эффективная температура на солнце - температура, которую ощущает человек, с поправкой на солнечный нагрев. Характеристика знойности погоды. Зависит от высоты солнца над горизонтом, облачности и скорости ветра. Ночью, в пасмурную погоду, а также при ветре 12 м/с и более поправка равна нулю.
  • P - Атмосферное давление - приведенное к уровню моря атмосферное давление.
  • Po - Атмосферное давление - измеренное на уровне метеостанции атмосферное давление.
  • Tmin - Минимальная температура - минимум температуры воздуха на высоте 2 м над землей.
  • Tmax - Максимальная температура - максимум температуры воздуха на высоте 2 м над землей.
  • R - Количество осадков - Количество выпавших осадков за период времени, мм. При наведении курсора мыши на число - период времени, за который выпало указанное количество осадков.
  • R24 - Количество осадков - Количество выпавших осадков за 24 часа, мм.
  • S - Снежный покров - Высота снежного покрова, см. При наведении курсора мыши на число - состояние снежного покрова и степень покрытия местности в баллах.